Theta_e
292 295 295 295 297 297 296 295 299 295 296 300 299 300 299 298 299 298 301 301 302 303 304 304 309 313 312 310 310 311 312 315 316 315 313 314 315 315 316 319 318 318 319 319
292 295 295 296 297 297 296 297 296 296 297 300 300 300 300 300 300 300 302 302 303 303 304 307 313 310 310 309 311 312 313 314 316 316 315 315 315 315 316 316 317 319 319 319
291 294 295 296 296 296 295 296 298 296 298 297 299 299 300 300 300 302 302 304 303 305 308 308 311 312 310 309 310 309 310 312 314 315 316 315 316 315 315 316 317 316 318 317
290 294 295 296 297 296 295 295 297 295 298 298 299 299 300 299 300 300 301 305 306 305 308 308 309 309 309 308 308 309 310 310 310 310 311 311 311 311 311 310 311 314 313 315
290 293 295 296 297 296 295 295 297 296 296 296 298 298 299 298 298 300 302 305 305 305 306 306 307 307 308 308 308 309 308 309 307 307 309 310 309 308 307 307 311 314 315 316
290 293 295 296 297 296 296 294 294 296 295 296 298 299 297 297 298 300 300 303 305 306 304 304 305 305 305 306 308 308 308 308 306 308 306 306 306 307 308 310 311 314 316 317
291 293 295 296 297 297 296 295 296 297 298 297 297 297 296 297 298 299 299 303 303 303 303 305 305 305 305 306 308 308 307 307 307 307 307 305 306 309 309 309 312 314 315 312
291 293 294 296 296 297 296 296 296 297 299 297 297 297 298 297 298 300 301 301 301 302 304 306 303 306 306 308 308 308 308 307 307 307 306 307 311 310 310 310 311 309 310 311
291 293 294 296 295 297 297 296 295 297 298 298 296 297 298 300 300 301 301 301 302 303 305 306 305 306 305 305 307 307 307 308 308 308 306 307 310 309 308 310 312 307 306 306
291 292 293 295 295 296 296 297 297 296 298 298 296 298 298 298 299 301 301 300 302 303 306 307 306 305 306 306 306 307 308 309 309 308 309 309 308 308 308 310 309 304 302 300
292 291 293 294 294 295 297 297 297 296 296 298 296 296 297 297 298 300 299 303 302 303 304 305 305 306 307 307 308 308 308 309 309 308 309 311 302 308 309 305 299 299 299 299
292 291 292 293 294 296 297 297 296 297 296 298 296 296 297 297 297 297 299 299 301 301 302 302 303 305 305 305 307 307 309 306 308 305 305 299 297 297 296 296 295 295 296 296
291 290 291 293 294 296 297 298 298 296 296 296 297 299 298 297 297 297 298 299 300 300 300 300 301 305 305 305 306 306 305 303 305 306 300 298 296 295 294 293 293 292 292 293
291 290 292 292 293 294 296 298 298 298 297 298 299 297 298 298 296 296 297 298 300 300 300 301 302 303 303 303 304 305 303 302 300 304 300 298 295 294 293 292 292 292 291 290
291 291 293 294 296 297 297 298 299 298 297 300 300 299 298 299 297 296 297 296 296 298 300 302 303 302 303 304 304 303 299 298 301 301 296 297 295 292 291 290 289 289 289 289
290 292 294 295 298 298 299 297 299 299 298 298 301 299 299 298 298 297 297 297 298 298 300 301 301 301 302 304 304 297 296 294 294 296 293 292 291 290 289 289 288 287 287 286
291 293 295 296 298 298 299 298 299 298 297 298 300 301 298 297 297 297 297 297 299 300 301 300 301 301 301 303 303 296 294 293 292 292 292 292 291 290 289 288 287 286 285 284
291 293 294 297 297 298 298 298 298 298 297 298 301 301 299 297 299 299 298 298 298 299 300 299 301 301 300 302 295 294 293 291 291 290 291 289 287 287 286 287 286 286 285 283
292 294 296 297 297 298 298 299 297 297 297 298 298 301 302 298 299 297 298 299 300 299 300 300 301 301 302 298 295 293 291 291 289 289 288 287 286 286 285 284 285 284 283 282
291 294 295 296 297 298 298 297 297 297 297 297 299 298 300 299 299 300 299 299 301 300 299 299 301 301 291 291 291 289 288 287 288 289 289 288 286 284 283 282 282 281 280 280
294 295 296 297 298 298 297 296 297 297 298 297 298 298 300 299 300 300 299 300 300 300 301 300 301 301 291 288 287 286 285 285 285 286 285 284 284 283 282 281 280 279 278 278
294 296 297 297 297 297 299 299 299 298 300 298 297 297 300 300 300 301 299 300 299 300 300 301 302 293 288 287 286 285 284 284 284 283 283 282 281 281 280 279 278 279 279 279
294 296 297 296 297 300 300 300 300 301 299 297 297 298 298 298 299 299 300 300 300 299 302 303 297 289 287 286 284 283 282 282 281 281 280 280 279 279 278 278 278 278 278 278
295 296 296 299 298 301 301 301 301 299 299 298 298 298 299 298 299 301 303 301 300 302 302 303 292 288 286 284 283 282 281 281 280 280 280 280 279 279 279 279 278 278 278 278
294 295 300 297 295 294 295 296 297 298 298 298 298 299 300 299 301 300 300 300 302 302 303 294 289 286 284 282 281 281 281 281 280 280 280 279 279 279 278 278 278 277 277 275
291 291 293 292 295 295 296 296 297 298 298 299 300 301 301 301 301 300 301 302 303 300 292 288 286 284 282 282 282 282 281 281 280 280 279 279 279 279 279 278 277 276 276 276
289 290 288 291 296 295 294 295 296 297 299 303 300 301 301 297 299 300 298 301 293 287 287 286 285 283 283 282 281 281 281 281 280 280 280 279 279 278 278 277 277 276 276 275
Wind_Speed
5 2 1 2 4 7 8 3 1 9 8 2 3 6 11 18 12 11 8 8 11 13 15 7 8 7 5 0 11 10 1 7 11 9 4 4 3 5 4 3 5 2 0 3
6 4 1 1 3 7 4 2 2 5 6 4 7 10 9 7 12 12 7 6 9 15 5 5 3 4 11 6 5 3 5 7 8 8 6 7 6 6 6 4 2 3 2 3
8 6 3 2 3 6 3 2 1 1 2 1 7 10 10 15 15 11 13 9 11 14 3 4 6 6 14 16 11 17 2 3 4 6 8 9 8 8 6 3 3 1 7 13
9 8 5 4 1 2 3 3 2 1 2 1 8 8 10 15 13 9 10 3 14 13 8 11 9 12 8 18 19 10 6 8 11 11 10 8 8 7 5 2 5 4 10 14
11 10 7 5 4 2 2 2 1 1 3 6 6 4 7 13 12 5 12 16 19 12 13 12 13 13 9 6 1 4 5 2 7 9 7 5 3 1 4 3 4 6 8 9
9 11 10 8 5 5 2 3 1 2 1 4 4 3 7 9 14 6 13 17 14 13 17 24 17 13 12 6 7 7 2 3 2 4 1 1 3 7 6 2 5 7 9 12
10 12 12 9 8 6 4 3 2 1 1 3 5 10 11 10 11 11 18 16 13 16 28 20 4 4 1 3 7 3 2 4 2 3 3 3 6 6 6 4 11 16 15 8
11 12 13 10 10 10 9 6 2 1 3 5 3 9 8 10 10 6 10 13 16 21 15 5 2 3 2 5 13 5 4 2 3 1 4 6 8 8 9 8 7 16 17 4
14 13 15 11 10 11 14 9 9 2 5 1 4 8 6 5 8 6 5 15 12 16 3 3 5 4 4 3 3 6 4 4 2 0 2 3 7 11 12 8 2 15 15 11
10 13 18 13 13 11 12 12 13 8 4 4 3 4 6 4 4 4 5 14 11 14 6 4 4 4 4 2 3 5 3 3 4 2 3 5 11 16 18 4 6 12 13 14
14 16 17 16 15 14 13 14 13 10 4 10 10 10 10 7 6 4 12 5 6 6 4 4 4 4 5 3 6 4 4 3 2 1 1 2 21 8 6 5 12 11 12 12
16 15 16 19 18 15 12 18 14 14 13 7 8 14 19 16 11 8 3 5 4 5 3 3 3 2 3 4 2 7 2 5 4 5 3 7 16 14 11 12 10 13 12 10
17 14 16 22 19 14 14 16 20 18 14 17 13 7 8 10 14 13 5 1 1 3 5 3 2 3 3 2 3 3 3 9 2 4 6 10 12 13 13 12 13 11 11 10
17 15 16 22 23 19 16 18 19 21 4 3 3 3 3 6 7 16 16 5 1 3 7 2 2 3 3 2 4 3 4 6 4 4 8 9 13 12 10 11 11 11 11 11
14 17 19 16 15 16 19 22 20 22 12 2 2 9 6 3 4 7 14 13 11 8 4 3 2 3 3 0 2 1 5 3 2 2 4 8 7 8 8 10 11 10 9 9
13 18 17 16 8 18 16 10 21 21 23 2 2 2 1 3 7 6 11 7 6 6 4 4 3 2 3 2 1 3 5 6 6 2 7 11 8 7 7 8 8 8 8 9
15 17 17 14 9 19 15 5 3 20 19 3 3 3 1 3 6 4 8 8 5 5 3 2 5 2 3 2 2 9 6 6 6 5 7 6 5 4 5 5 6 7 8 9
20 17 19 11 9 18 18 8 7 22 18 4 2 2 4 7 4 4 6 7 7 5 3 2 4 2 2 3 7 7 7 6 5 6 5 5 4 5 5 4 3 4 6 7
20 16 10 8 11 9 13 16 8 2 9 3 4 3 3 7 3 3 3 5 3 3 4 4 3 3 4 2 9 7 5 4 3 4 5 5 6 5 5 5 5 5 5 6
25 12 7 5 11 13 17 15 15 8 7 6 4 4 3 7 5 4 4 4 3 3 4 2 3 2 5 5 7 7 5 4 2 6 2 2 3 3 5 5 6 6 5 5
18 9 6 12 29 16 7 5 6 7 5 7 7 14 6 8 4 3 5 2 1 3 3 3 4 3 6 9 8 7 6 5 6 7 6 5 4 4 4 6 7 7 7 7
13 7 15 24 7 5 5 5 4 6 6 12 9 9 7 7 4 4 5 3 2 4 7 3 3 4 10 11 9 7 7 7 8 8 8 8 7 7 7 8 8 9 9 8
13 10 6 7 6 6 7 10 5 6 10 12 15 9 8 5 5 3 4 5 4 0 3 3 3 11 12 11 10 9 8 8 9 9 9 10 10 10 9 10 10 9 8 8
7 8 7 6 5 7 5 7 4 6 11 23 21 11 5 4 5 2 3 3 2 3 3 2 5 14 14 10 9 10 9 9 10 11 11 11 11 12 11 10 10 8 7 7
7 4 6 5 2 1 5 8 9 8 23 27 14 6 4 3 3 3 1 4 4 4 1 3 14 16 14 12 11 12 12 12 12 13 13 13 11 10 9 8 7 7 7 8
3 3 2 5 7 5 8 10 11 17 25 21 5 4 4 3 3 5 6 3 4 3 4 14 18 16 14 14 14 14 14 13 13 12 11 10 9 7 5 5 5 5 5 6
4 2 2 1 6 7 6 10 12 25 20 3 4 6 3 4 3 4 3 1 3 11 16 16 15 16 16 16 15 14 13 12 11 10 9 7 6 4 3 2 1 2 4 5
Wind_Direction
203 196 323 331 354 352 1 10 40 357 13 359 1 332 335 318 317 327 305 269 280 271 293 286 256 112 55 176 181 161 161 149 151 150 108 154 161 162 192 247 179 158 344 290
212 200 223 282 332 340 20 23 25 358 35 15 354 343 338 311 308 333 310 278 289 289 282 276 73 60 41 100 128 131 157 156 140 140 132 167 180 151 93 82 333 227 243 96
207 197 190 205 325 4 62 54 93 22 42 59 327 351 360 358 338 313 328 301 297 318 295 38 41 56 50 33 50 33 66 118 249 171 135 141 149 160 160 160 182 301 254 295
204 196 192 191 179 340 106 63 81 49 352 72 336 336 344 359 358 338 321 284 354 346 348 12 20 26 40 27 26 21 27 89 93 88 101 115 138 153 166 229 253 259 314 319
199 197 189 187 195 144 137 112 151 199 284 301 318 350 348 355 347 305 338 354 340 339 15 3 343 346 14 58 183 106 321 62 111 79 110 120 138 170 279 244 263 293 299 326
202 192 184 186 189 170 159 182 191 303 299 322 323 25 331 318 326 314 341 342 336 352 346 326 307 290 284 297 347 26 102 176 138 102 40 325 142 108 29 34 2 350 331 352
217 193 187 190 192 185 205 191 146 273 315 317 349 320 316 316 325 309 319 344 348 333 324 320 275 234 284 344 16 2 97 88 30 105 202 120 76 29 72 1 52 19 354 66
210 197 192 196 200 193 203 210 173 256 299 310 332 348 338 316 321 328 321 344 328 326 326 335 360 90 78 34 34 57 11 18 89 97 61 113 117 39 12 3 57 27 2 85
201 207 199 193 207 206 219 227 203 219 303 86 313 325 341 345 345 340 354 341 338 347 313 337 6 39 340 47 91 37 24 10 9 162 85 111 50 350 332 307 165 15 1 357
224 208 204 194 202 217 221 230 239 233 269 282 249 333 341 342 338 306 323 345 343 1 351 18 14 46 327 18 33 31 46 36 35 43 46 99 360 344 327 244 26 13 22 31
224 215 212 203 211 212 225 230 236 229 243 274 262 273 278 291 294 313 334 313 19 353 20 354 20 349 24 311 49 359 19 327 77 17 319 118 355 344 19 355 40 44 46 51
227 217 215 206 209 214 213 224 229 228 238 273 272 274 277 261 271 283 296 335 359 18 331 26 288 316 359 337 66 23 65 8 0 26 55 52 42 63 49 60 67 46 56 54
229 232 210 209 209 217 214 229 228 214 236 276 270 274 289 265 249 223 250 241 328 14 357 2 300 306 330 1 51 357 101 15 43 203 69 60 58 56 58 60 64 55 56 54
232 221 204 206 215 225 226 229 232 223 177 264 261 259 309 277 253 216 216 229 252 337 331 320 305 300 6 342 337 355 4 341 343 104 102 111 58 53 56 57 55 51 48 51
233 205 201 200 204 219 222 226 242 229 209 283 281 305 277 272 213 215 207 221 243 286 294 251 292 321 301 196 269 85 5 20 346 53 354 87 73 62 55 54 44 39 42 41
228 195 199 197 218 206 207 203 225 227 226 207 275 286 229 262 212 192 190 196 206 218 247 281 279 282 291 292 306 97 102 73 43 85 83 107 113 72 52 53 48 43 44 43
214 197 193 211 209 208 189 190 210 188 204 207 252 204 176 148 142 140 180 198 208 234 257 258 279 268 310 290 266 136 135 110 76 85 155 114 72 73 58 59 54 48 47 46
196 201 204 216 204 197 204 166 105 169 181 201 242 197 189 174 180 157 171 194 217 236 248 252 265 176 230 248 139 160 154 123 81 67 85 99 100 69 50 52 52 56 50 51
192 197 204 209 199 179 198 202 223 188 185 212 195 223 166 171 134 130 168 190 196 201 233 229 213 210 227 85 165 162 147 157 127 112 97 87 75 64 53 55 62 72 60 53
191 199 196 187 164 149 153 151 167 177 208 217 227 195 169 175 172 153 165 207 225 220 213 173 234 239 117 134 140 139 120 98 116 166 142 141 81 74 67 65 69 80 77 68
193 176 196 157 147 144 158 162 176 168 196 208 204 195 157 189 173 175 213 200 208 248 143 221 203 220 155 155 135 122 108 97 95 112 112 107 117 122 97 84 84 86 85 80
172 179 147 170 155 155 176 187 179 201 205 176 176 184 174 160 176 194 186 206 189 247 146 232 235 104 146 153 139 125 118 117 115 113 112 106 105 108 109 102 99 100 99 93
189 192 168 172 176 183 196 182 194 190 169 170 162 155 150 140 178 171 181 204 230 66 223 231 48 144 154 153 144 130 123 119 116 116 113 112 112 112 113 111 104 95 90 81
214 188 145 210 176 216 196 196 161 145 164 157 162 144 149 149 168 184 222 165 205 231 230 214 141 160 155 148 141 138 135 134 129 126 128 125 123 120 116 110 101 90 78 68
205 181 173 178 118 127 156 139 129 143 154 145 132 107 145 148 157 197 153 189 229 230 238 99 146 151 150 147 149 145 138 134 130 126 125 121 116 110 102 89 75 61 51 45
89 80 135 128 152 156 152 146 135 144 147 144 145 149 167 169 171 185 210 218 222 125 110 135 146 148 151 151 150 148 144 140 135 131 127 123 119 110 97 86 76 64 48 30
121 160 138 165 106 143 123 139 150 159 164 146 154 166 153 118 197 215 205 237 83 131 132 139 148 151 153 151 148 145 143 140 138 138 137 135 132 124 104 88 37 7 351 348